Flag for U.S.A. Weather past 2 weeks in Laredo, Texas, U.S.A.

Now
86 °F

Sunny.


Feels Like: 92 °F
Forecast: 79 / 101 °F
Wind: 8 mph from East

Location: Laredo International Airport

Current Time: Aug 27, 2014 at 10:35:04 AM

Latest Report: Aug 27, 2014 at 9:56 AM


Visibility: 10 mi

Pressure: 29.98 "Hg

Humidity: 63%

Dew point: 72 °F

Location of LaredoLocation

Historic Weather in Laredo — Graph

°F

Laredo temperature yesterday

Maximum temperature yesterday: 104 °F (at 3:56 PM)
Minimum temperature yesterday: 78 °F (at 6:56 AM)
Average temperature yesterday: 91 °F

Past Weeks' High & Low Weather Summary

 TemperatureHumidityPressure
High106 °F (Aug 16, 5:56 PM)88% (Aug 13, 6:56 AM)30.05 "Hg (Aug 13, 6:56 AM)
Low75 °F (Aug 13, 5:56 AM)16% (Aug 22, 3:56 PM)29.72 "Hg (Aug 19, 5:56 PM)
Average91 °F51%29.90 "Hg
* Reported Aug 12 8:56 AM — Aug 27 8:56 AM, Laredo, Weather by CustomWeather, © 2014

Note: Actual official high and low records may vary slightly from our data, if they occured in-between our weather recording intervals... More about our weather records

Advertising

Laredo weather history for previous 24 hours

 ConditionsComfort  
Time TempWeatherWind HumidityBarometerVisibility
8:56 AM
Aug 27
83 °FSunny.6 mph72%29.97 "Hg10 mi
7:56 AM79 °FClear.7 mph82%29.96 "Hg10 mi
6:56 AM79 °FClear.6 mph79%29.94 "Hg10 mi
5:56 AM80 °FClear.6 mph77%29.93 "Hg10 mi
4:56 AM81 °FClear.7 mph74%29.93 "Hg10 mi
3:56 AM82 °FClear.7 mph69%29.93 "Hg10 mi
2:56 AM83 °FClear.6 mph67%29.95 "Hg10 mi
1:56 AM85 °FClear.9 mph63%29.95 "Hg10 mi
12:56 AM86 °FClear.13 mph59%29.95 "Hg10 mi
11:56 PM
Aug 26
87 °FClear.14 mph55%29.95 "Hg10 mi
10:56 PM89 °FClear.14 mph52%29.93 "Hg10 mi
9:56 PM91 °FClear.18 mph49%29.89 "Hg10 mi
8:56 PM94 °FSunny.21 mph46%29.87 "Hg10 mi
7:56 PM100 °FSunny.8 mph27%29.85 "Hg10 mi
6:56 PM102 °FScattered clouds.12 mph26%29.84 "Hg10 mi
5:56 PM104 °FSunny.14 mph24%29.83 "Hg10 mi
4:56 PM104 °FPassing clouds.12 mph24%29.84 "Hg10 mi
3:56 PM104 °FPassing clouds.9 mph24%29.87 "Hg10 mi
2:56 PM102 °FSunny.6 mph26%29.90 "Hg10 mi
1:56 PM98 °FSunny.No wind30%29.93 "Hg10 mi
12:56 PM97 °FSunny.7 mph34%29.95 "Hg10 mi
11:56 AM94 °FSunny.3 mph38%29.97 "Hg10 mi
10:56 AM90 °FSunny.5 mph52%29.98 "Hg10 mi
Weather by CustomWeather, © 2014

See weather overviewHow to use our weather pages